• In Czech Republic
  • List of Countries
  • For 7 days
  • Water Temperature
  • Satellite Maps
  • Weather Map
  • Weather Widgets
  • user-avatar
    Login

    Hourly Weather Mazari Sharif

    Today, 15 December, Friday

    Time Temperature Precipitation Wind Pressure Humidity
    00:00 -2°C° 0 mm 1 mps 657 mmHg 53%
    01:00 -2°C° 0 mm 1 mps 657 mmHg 53%
    02:00 -2°C° 0 mm 1 mps 657 mmHg 52%
    03:00 -2°C° 0 mm 1 mps 657 mmHg 52%
    04:00 -2°C° 0 mm 1 mps 656 mmHg 52%
    05:00 -2°C° 0 mm 1 mps 657 mmHg 52%
    06:00 -2°C° 0 mm 1 mps 657 mmHg 52%
    07:00 -2°C° 0 mm 1 mps 657 mmHg 52%
    08:00 0°C° 0 mm 1 mps 657 mmHg 45%
    09:00 +2°C° 0 mm 1 mps 658 mmHg 39%
    10:00 +4°C° 0 mm 1 mps 658 mmHg 32%
    11:00 +5°C° 0 mm 1 mps 658 mmHg 31%
    12:00 +4°C° 0 mm 2 mps 658 mmHg 31%
    13:00 +5°C° 0 mm 2 mps 658 mmHg 30%
    14:00 +4°C° 0 mm 2 mps 658 mmHg 33%
    15:00 +4°C° 0 mm 1 mps 658 mmHg 36%
    16:00 +3°C° 0 mm 1 mps 657 mmHg 40%
    17:00 +3°C° 0 mm 1 mps 657 mmHg 41%
    18:00 +2°C° 0 mm 1 mps 657 mmHg 42%
    19:00 +2°C° 0 mm 1 mps 657 mmHg 43%
    20:00 +2°C° 0 mm 1 mps 657 mmHg 42%
    21:00 +2°C° 0 mm 1 mps 658 mmHg 42%
    22:00 +2°C° 0 mm 1 mps 658 mmHg 41%
    23:00 +2°C° 0 mm 1 mps 658 mmHg 41%

    Tomorrow, 16 December, Saturday

    Time Temperature Precipitation Wind Pressure Humidity
    00:00 +2°C° 0 mm 1 mps 658 mmHg 41%
    01:00 +2°C° 0 mm 1 mps 658 mmHg 42%
    02:00 +2°C° 0 mm 1 mps 658 mmHg 43%
    03:00 +2°C° 0 mm 1 mps 658 mmHg 45%
    04:00 +1°C° 0 mm 0 mps 658 mmHg 46%
    05:00 +2°C° 0 mm 1 mps 658 mmHg 46%
    06:00 +2°C° 0 mm 1 mps 658 mmHg 46%
    07:00 +2°C° 0 mm 2 mps 659 mmHg 45%
    08:00 +3°C° 0 mm 2 mps 659 mmHg 43%
    09:00 +4°C° 0 mm 2 mps 660 mmHg 40%
    10:00 +6°C° 0 mm 2 mps 660 mmHg 38%
    11:00 +6°C° 0 mm 2 mps 660 mmHg 37%
    12:00 +7°C° 0 mm 3 mps 659 mmHg 36%
    13:00 +7°C° 0 mm 3 mps 659 mmHg 35%
    14:00 +7°C° 0 mm 3 mps 659 mmHg 36%
    15:00 +5°C° 0 mm 3 mps 659 mmHg 38%
    16:00 +5°C° 0 mm 3 mps 659 mmHg 39%
    17:00 +4°C° 0 mm 3 mps 659 mmHg 41%
    18:00 +4°C° 0 mm 3 mps 660 mmHg 42%
    19:00 +3°C° 0 mm 3 mps 660 mmHg 43%
    20:00 +3°C° 0 mm 3 mps 660 mmHg 43%
    21:00 +3°C° 0 mm 3 mps 660 mmHg 43%
    22:00 +2°C° 0 mm 3 mps 660 mmHg 43%
    23:00 +2°C° 0 mm 3 mps 660 mmHg 43%

    Day after tomorrow, 17 December, Sunday

    Time Temperature Precipitation Wind Pressure Humidity
    00:00 +2°C° 0 mm 3 mps 660 mmHg 43%
    01:00 +2°C° 0 mm 3 mps 660 mmHg 43%
    02:00 +2°C° 0 mm 3 mps 659 mmHg 42%
    03:00 +3°C° 0 mm 2 mps 659 mmHg 42%
    04:00 +2°C° 0 mm 2 mps 659 mmHg 42%
    05:00 +2°C° 0 mm 2 mps 659 mmHg 41%
    06:00 +3°C° 0 mm 2 mps 659 mmHg 41%
    07:00 +3°C° 0 mm 2 mps 659 mmHg 40%
    08:00 +5°C° 0 mm 2 mps 660 mmHg 36%
    09:00 +6°C° 0 mm 2 mps 660 mmHg 31%
    10:00 +9°C° 0 mm 1 mps 661 mmHg 27%
    11:00 +9°C° 0 mm 2 mps 660 mmHg 27%
    12:00 +9°C° 0 mm 2 mps 660 mmHg 26%
    13:00 +10°C° 0 mm 2 mps 659 mmHg 25%
    14:00 +9°C° 0 mm 2 mps 659 mmHg 28%
    15:00 +9°C° 0 mm 1 mps 659 mmHg 32%
    16:00 +8°C° 0 mm 1 mps 659 mmHg 35%
    17:00 +8°C° 0 mm 1 mps 659 mmHg 36%
    18:00 +7°C° 0 mm 1 mps 659 mmHg 36%
    19:00 +7°C° 0 mm 1 mps 659 mmHg 37%
    20:00 +7°C° 0 mm 1 mps 659 mmHg 38%
    21:00 +6°C° 0 mm 1 mps 659 mmHg 39%
    22:00 +6°C° 0 mm 1 mps 659 mmHg 40%
    23:00 +6°C° 0 mm 1 mps 659 mmHg 40%

    18 December, Monday

    Time Temperature Precipitation Wind Pressure Humidity
    00:00 +6°C° 0 mm 1 mps 659 mmHg 40%
    01:00 +5°C° 0 mm 2 mps 659 mmHg 40%
    02:00 +5°C° 0 mm 2 mps 659 mmHg 40%
    03:00 +5°C° 0 mm 2 mps 659 mmHg 39%
    04:00 +5°C° 0 mm 2 mps 659 mmHg 39%
    05:00 +5°C° 0 mm 2 mps 659 mmHg 39%
    06:00 +5°C° 0 mm 2 mps 660 mmHg 40%
    07:00 +4°C° 0 mm 3 mps 660 mmHg 40%
    08:00 +7°C° 0 mm 2 mps 660 mmHg 37%
    09:00 +8°C° 0 mm 2 mps 661 mmHg 33%
    10:00 +10°C° 0 mm 2 mps 661 mmHg 29%
    11:00 +12°C° 0 mm 2 mps 661 mmHg 28%
    12:00 +11°C° 0 mm 3 mps 660 mmHg 27%
    13:00 +12°C° 0 mm 3 mps 660 mmHg 26%
    14:00 +11°C° 0 mm 3 mps 659 mmHg 28%
    15:00 +10°C° 0 mm 2 mps 659 mmHg 30%
    16:00 +9°C° 0 mm 2 mps 659 mmHg 33%
    17:00 +8°C° 0 mm 2 mps 659 mmHg 34%
    18:00 +7°C° 0 mm 2 mps 659 mmHg 36%
    19:00 +6°C° 0 mm 2 mps 659 mmHg 38%
    20:00 +6°C° 0 mm 2 mps 659 mmHg 37%
    21:00 +6°C° 0 mm 2 mps 659 mmHg 37%
    22:00 +6°C° 0 mm 2 mps 659 mmHg 36%
    23:00 +6°C° 0 mm 2 mps 659 mmHg 37%

    19 December, Tuesday

    Time Temperature Precipitation Wind Pressure Humidity
    00:00 +5°C° 0 mm 2 mps 659 mmHg 38%
    01:00 +5°C° 0 mm 2 mps 658 mmHg 39%
    02:00 +5°C° 0 mm 2 mps 658 mmHg 40%
    03:00 +5°C° 0 mm 2 mps 658 mmHg 41%
    04:00 +5°C° 0 mm 2 mps 658 mmHg 41%
    05:00 +5°C° 0 mm 2 mps 659 mmHg 42%
    06:00 +5°C° 0 mm 2 mps 659 mmHg 42%
    07:00 +4°C° 0 mm 2 mps 659 mmHg 42%
    08:00 +7°C° 0 mm 2 mps 660 mmHg 37%
    09:00 +9°C° 0 mm 2 mps 661 mmHg 33%
    10:00 +12°C° 0 mm 1 mps 661 mmHg 28%
    11:00 +12°C° 0 mm 2 mps 661 mmHg 27%
    12:00 +13°C° 0 mm 2 mps 661 mmHg 26%
    13:00 +14°C° 0 mm 2 mps 660 mmHg 25%
    14:00 +12°C° 0 mm 2 mps 660 mmHg 28%
    15:00 +10°C° 0 mm 2 mps 659 mmHg 31%
    16:00 +9°C° 0 mm 2 mps 659 mmHg 34%
    17:00 +8°C° 0 mm 2 mps 659 mmHg 35%
    18:00 +8°C° 0 mm 2 mps 659 mmHg 36%
    19:00 +7°C° 0 mm 2 mps 659 mmHg 37%
    20:00 +7°C° 0 mm 2 mps 659 mmHg 37%
    21:00 +6°C° 0 mm 2 mps 659 mmHg 37%
    22:00 +6°C° 0 mm 2 mps 659 mmHg 37%
    23:00 +6°C° 0 mm 2 mps 659 mmHg 38%

    20 December, Wednesday

    Time Temperature Precipitation Wind Pressure Humidity
    00:00 +6°C° 0 mm 2 mps 659 mmHg 38%
    01:00 +5°C° 0 mm 2 mps 659 mmHg 39%
    02:00 +5°C° 0 mm 2 mps 659 mmHg 39%
    03:00 +5°C° 0 mm 2 mps 659 mmHg 39%
    04:00 +5°C° 0 mm 2 mps 659 mmHg 39%
    05:00 +5°C° 0 mm 2 mps 659 mmHg 39%
    06:00 +4°C° 0 mm 3 mps 660 mmHg 39%
    07:00 +4°C° 0 mm 3 mps 660 mmHg 38%
    08:00 +7°C° 0 mm 2 mps 661 mmHg 34%
    09:00 +9°C° 0 mm 2 mps 661 mmHg 29%
    10:00 +12°C° 0 mm 2 mps 662 mmHg 25%
    11:00 +13°C° 0 mm 2 mps 662 mmHg 23%
    12:00 +14°C° 0 mm 2 mps 662 mmHg 22%
    13:00 +14°C° 0 mm 2 mps 661 mmHg 21%
    14:00 +13°C° 0 mm 2 mps 661 mmHg 24%
    15:00 +12°C° 0 mm 1 mps 661 mmHg 26%
    16:00 +11°C° 0 mm 1 mps 661 mmHg 29%
    17:00 +10°C° 0 mm 1 mps 661 mmHg 29%
    18:00 +8°C° 0 mm 2 mps 661 mmHg 29%
    19:00 +8°C° 0 mm 2 mps 662 mmHg 30%
    20:00 +7°C° 0 mm 2 mps 662 mmHg 30%
    21:00 +7°C° 0 mm 2 mps 662 mmHg 30%
    22:00 +7°C° 0 mm 2 mps 662 mmHg 30%
    23:00 +7°C° 0 mm 2 mps 662 mmHg 31%
    Show more